When you browse on this site, cookies collect data to enhance your experience and personalize the content and advertising you see.
Visit our Privacy Policy to learn more. By continuing to use the site, you agree to this use of cookies and data.
  • Em Portugal
  • Lista de países
  • Para 7 dias
  • Temperatura da água
  • Mapas de satélite
  • Mapa do tempo
  • Widgets de tempo
  • user-avatar
    Iniciar Sessão

    Previsão horária em Dvor-Lyudchicy

    Hoje, 20 Novembro, Terça-feira

    Tempo Temperatura Precipitação Vento Pressão Humidade
    00:00 -2°C° 0 mm 3 m/s 756 mmHg 93%
    01:00 -4°C° 0 mm 3 m/s 756 mmHg 94%
    02:00 -3°C° 0 mm 2 m/s 756 mmHg 94%
    03:00 -4°C° 0 mm 2 m/s 755 mmHg 95%
    04:00 -4°C° 0 mm 2 m/s 755 mmHg 95%
    05:00 -4°C° 0 mm 2 m/s 755 mmHg 96%
    06:00 -4°C° 0 mm 2 m/s 755 mmHg 95%
    07:00 -5°C° 0 mm 2 m/s 755 mmHg 95%
    08:00 -5°C° 0 mm 2 m/s 755 mmHg 95%
    09:00 -2°C° 0 mm 1 m/s 755 mmHg 92%
    10:00 -1°C° 0 mm 1 m/s 755 mmHg 89%
    11:00 -1°C° 0 mm 1 m/s 755 mmHg 86%
    12:00 -1°C° 0 mm 1 m/s 755 mmHg 85%
    13:00 0°C° 0 mm 1 m/s 754 mmHg 84%
    14:00 0°C° 0 mm 1 m/s 754 mmHg 82%
    15:00 -1°C° 0 mm 1 m/s 754 mmHg 85%
    16:00 -1°C° 0 mm 1 m/s 754 mmHg 87%
    17:00 -2°C° 0 mm 1 m/s 754 mmHg 89%
    18:00 -2°C° 0 mm 1 m/s 754 mmHg 90%
    19:00 -2°C° 0 mm 1 m/s 754 mmHg 91%
    20:00 -3°C° 0 mm 1 m/s 754 mmHg 91%
    21:00 -3°C° 0 mm 1 m/s 754 mmHg 91%
    22:00 -3°C° 0 mm 1 m/s 754 mmHg 91%
    23:00 -3°C° 0 mm 1 m/s 754 mmHg 91%

    Amanhã, 21 Novembro, Quarta-feira

    Tempo Temperatura Precipitação Vento Pressão Humidade
    00:00 -3°C° 0 mm 1 m/s 754 mmHg 90%
    01:00 -3°C° 0 mm 1 m/s 754 mmHg 89%
    02:00 -3°C° 0 mm 1 m/s 754 mmHg 89%
    03:00 -3°C° 0 mm 1 m/s 753 mmHg 88%
    04:00 -3°C° 0 mm 1 m/s 753 mmHg 87%
    05:00 -3°C° 0 mm 1 m/s 753 mmHg 86%
    06:00 -3°C° 0 mm 1 m/s 753 mmHg 86%
    07:00 -5°C° 0 mm 2 m/s 753 mmHg 85%
    08:00 -5°C° 0 mm 2 m/s 753 mmHg 85%
    09:00 -4°C° 0 mm 2 m/s 753 mmHg 84%
    10:00 -3°C° 0 mm 2 m/s 753 mmHg 84%
    11:00 -2°C° 0 mm 2 m/s 753 mmHg 83%
    12:00 -2°C° 0 mm 2 m/s 753 mmHg 83%
    13:00 -1°C° 0 mm 2 m/s 753 mmHg 83%
    14:00 -1°C° 0 mm 2 m/s 753 mmHg 83%
    15:00 -1°C° 0 mm 2 m/s 753 mmHg 83%
    16:00 -2°C° 0 mm 2 m/s 753 mmHg 83%
    17:00 -2°C° 0 mm 2 m/s 753 mmHg 84%
    18:00 -2°C° 0 mm 2 m/s 753 mmHg 84%
    19:00 -3°C° 0 mm 2 m/s 753 mmHg 84%
    20:00 -3°C° 0 mm 2 m/s 753 mmHg 85%
    21:00 -1°C° 0 mm 1 m/s 753 mmHg 87%
    22:00 -2°C° 0 mm 1 m/s 753 mmHg 89%
    23:00 -2°C° 0 mm 1 m/s 753 mmHg 91%

    Depois de amanhã, 22 Novembro, Quinta-feira

    Tempo Temperatura Precipitação Vento Pressão Humidade
    00:00 -3°C° 0 mm 1 m/s 753 mmHg 92%
    01:00 -3°C° 0 mm 1 m/s 753 mmHg 93%
    02:00 -5°C° 0 mm 2 m/s 753 mmHg 94%
    03:00 -5°C° 0 mm 2 m/s 753 mmHg 95%
    04:00 -5°C° 0 mm 2 m/s 753 mmHg 95%
    05:00 -5°C° 0 mm 2 m/s 753 mmHg 95%
    06:00 -5°C° 0 mm 2 m/s 753 mmHg 96%
    07:00 -5°C° 0 mm 2 m/s 753 mmHg 96%
    08:00 -5°C° 0 mm 2 m/s 753 mmHg 96%
    09:00 -4°C° 0 mm 2 m/s 752 mmHg 92%
    10:00 -4°C° 0 mm 3 m/s 752 mmHg 88%
    11:00 -4°C° 0 mm 3 m/s 752 mmHg 85%
    12:00 -2°C° 0 mm 3 m/s 752 mmHg 83%
    13:00 -2°C° 0 mm 3 m/s 752 mmHg 81%
    14:00 -3°C° 0 mm 4 m/s 751 mmHg 79%
    15:00 -3°C° 0 mm 4 m/s 751 mmHg 81%
    16:00 -4°C° 0 mm 4 m/s 751 mmHg 84%
    17:00 -5°C° 0 mm 4 m/s 751 mmHg 86%
    18:00 -5°C° 0 mm 4 m/s 751 mmHg 88%
    19:00 -5°C° 0 mm 4 m/s 751 mmHg 89%
    20:00 -5°C° 0 mm 4 m/s 751 mmHg 91%
    21:00 -4°C° 0 mm 4 m/s 751 mmHg 90%
    22:00 -4°C° 0 mm 4 m/s 751 mmHg 89%
    23:00 -3°C° 0 mm 4 m/s 752 mmHg 88%

    23 Novembro, Sexta-feira

    Tempo Temperatura Precipitação Vento Pressão Humidade
    00:00 -2°C° 0 mm 3 m/s 752 mmHg 88%
    01:00 -2°C° 0 mm 2 m/s 752 mmHg 89%
    02:00 -2°C° 0 mm 2 m/s 752 mmHg 89%
    03:00 -2°C° 0 mm 2 m/s 753 mmHg 90%
    04:00 -2°C° 0 mm 2 m/s 753 mmHg 90%
    05:00 -2°C° 0 mm 2 m/s 753 mmHg 91%
    06:00 -2°C° 0 mm 2 m/s 753 mmHg 92%
    07:00 0°C° 0 mm 1 m/s 753 mmHg 93%
    08:00 0°C° 0 mm 1 m/s 754 mmHg 94%
    09:00 0°C° 0 mm 1 m/s 754 mmHg 92%
    10:00 +1°C° 0 mm 1 m/s 754 mmHg 90%
    11:00 +1°C° 0 mm 1 m/s 755 mmHg 89%
    12:00 +1°C° 0 mm 1 m/s 754 mmHg 87%
    13:00 +1°C° 0 mm 1 m/s 754 mmHg 86%
    14:00 -1°C° 0 mm 2 m/s 754 mmHg 84%
    15:00 -1°C° 0 mm 2 m/s 754 mmHg 85%
    16:00 -2°C° 0 mm 2 m/s 754 mmHg 86%
    17:00 -2°C° 0 mm 2 m/s 754 mmHg 86%
    18:00 -2°C° 0 mm 2 m/s 754 mmHg 87%
    19:00 -3°C° 0 mm 2 m/s 753 mmHg 88%
    20:00 -3°C° 0 mm 2 m/s 753 mmHg 88%
    21:00 -3°C° 0 mm 2 m/s 753 mmHg 89%
    22:00 -5°C° 0 mm 3 m/s 752 mmHg 90%
    23:00 -5°C° 0 mm 3 m/s 752 mmHg 91%

    24 Novembro, Sábado

    Tempo Temperatura Precipitação Vento Pressão Humidade
    00:00 -5°C° 0 mm 3 m/s 752 mmHg 91%
    01:00 -5°C° 0 mm 3 m/s 751 mmHg 91%
    02:00 -6°C° 0 mm 3 m/s 751 mmHg 91%
    03:00 -6°C° 0 mm 3 m/s 751 mmHg 91%
    04:00 -6°C° 0 mm 3 m/s 750 mmHg 90%
    05:00 -6°C° 0 mm 3 m/s 750 mmHg 89%
    06:00 -6°C° 0 mm 3 m/s 749 mmHg 89%
    07:00 -6°C° 0 mm 3 m/s 749 mmHg 88%
    08:00 -6°C° 0 mm 3 m/s 748 mmHg 88%
    09:00 -6°C° 0 mm 3 m/s 748 mmHg 84%
    10:00 -5°C° 0 mm 3 m/s 748 mmHg 81%
    11:00 -4°C° 0 mm 3 m/s 748 mmHg 77%
    12:00 -4°C° 0 mm 3 m/s 748 mmHg 77%
    13:00 -3°C° 0 mm 2 m/s 747 mmHg 77%
    14:00 -3°C° 0 mm 2 m/s 747 mmHg 76%
    15:00 -3°C° 0 mm 2 m/s 747 mmHg 78%
    16:00 -4°C° 0 mm 2 m/s 747 mmHg 81%
    17:00 -2°C° 0 mm 1 m/s 746 mmHg 83%
    18:00 -2°C° 0 mm 1 m/s 746 mmHg 83%
    19:00 -3°C° 0 mm 1 m/s 746 mmHg 84%
    20:00 -3°C° 0 mm 1 m/s 746 mmHg 84%
    21:00 -3°C° 0 mm 1 m/s 746 mmHg 84%
    22:00 -3°C° 0 mm 1 m/s 746 mmHg 84%
    23:00 -3°C° 0 mm 1 m/s 746 mmHg 84%

    25 Novembro, Domingo

    Tempo Temperatura Precipitação Vento Pressão Humidade
    00:00 -3°C° 0 mm 1 m/s 746 mmHg 85%
    01:00 -3°C° 0 mm 1 m/s 746 mmHg 86%
    02:00 -3°C° 0 mm 1 m/s 746 mmHg 86%
    03:00 -3°C° 0 mm 1 m/s 746 mmHg 88%
    04:00 -4°C° 0 mm 0 m/s 745 mmHg 89%
    05:00 -4°C° 0 mm 0 m/s 745 mmHg 90%
    06:00 -4°C° 0 mm 0 m/s 745 mmHg 90%
    07:00 -4°C° 0 mm 0 m/s 745 mmHg 91%
    08:00 -5°C° 0 mm 0 m/s 745 mmHg 91%
    09:00 -3°C° 0 mm 1 m/s 746 mmHg 89%
    10:00 -2°C° 0 mm 1 m/s 746 mmHg 87%
    11:00 -1°C° 0 mm 1 m/s 746 mmHg 85%
    12:00 -1°C° 0 mm 1 m/s 745 mmHg 86%
    13:00 -1°C° 0 mm 1 m/s 745 mmHg 86%
    14:00 -3°C° 0 mm 2 m/s 745 mmHg 87%
    15:00 -3°C° 0 mm 2 m/s 745 mmHg 89%
    16:00 -4°C° 0 mm 2 m/s 745 mmHg 91%
    17:00 -4°C° 0 mm 2 m/s 744 mmHg 92%
    18:00 -4°C° 0 mm 2 m/s 744 mmHg 92%
    19:00 -4°C° 0 mm 2 m/s 744 mmHg 91%
    20:00 -5°C° 0 mm 3 m/s 744 mmHg 91%
    21:00 -5°C° 0 mm 3 m/s 744 mmHg 90%
    22:00 -6°C° 0 mm 3 m/s 744 mmHg 90%
    23:00 -6°C° 0 mm 3 m/s 744 mmHg 89%
    Mostrar mais